Hourly Data Report for October 10, 2013

All times are specified in Local Standard Time (LST). Add 1 hour to adjust for Daylight Saving Time where and when it is observed.

QIKIQTARJUAQ A
NUNAVUT

67°32'48.000" N
64°01'54.000" W
5.50 m
2400577
YVM

Download Data

Hourly Data (October 2013)
Hourly Data Report for October 10, 2013
Temp Definition
°C
Dew Point Temp Definition
°C
Rel Hum Definition
%
Wind Dir Definition
10's deg

Wind Spd Definition
km/h
Visibility Definition
km
Stn Press Definition
kPa
Hmdx Definition


Wind Chill Definition


Weather Definition


TIME
00:00 Legend Double Dagger -1.7 -4.2 83 35 30 12.9 100.86   -9 LegendNANA
01:00 Legend Double Dagger -2.1 -5.2 79 32 22 16.1 100.91   -8 LegendNANA
02:00 Legend Double Dagger -2.3 -4.6 85 33 26 16.1 100.95   -9 LegendNANA
03:00 Legend Double Dagger -2.3 -4.5 85 32 22 12.9 101.05   -8 LegendNANA
04:00 Legend Double Dagger -1.8 -4.7 81 32 22 16.1 101.13   -8 LegendNANA
05:00 Legend Double Dagger -2.3 -3.5 92 1 30 3.2 101.20   -9 LegendNANA
06:00 Legend Double Dagger -2.3 -5.0 82 33 22 12.9 101.25   -8 LegendNANA
07:00 Legend Double Dagger -2.4 -4.4 86 32 18 12.9 101.28   -8 LegendNANA
08:00 Legend Double Dagger -1.7 -6.5 70 35 24 16.1 101.30   -8 LegendNANA
09:00 Legend Double Dagger -1.7 -7.2 66 36 21 16.1 101.31   -8 LegendNANA
10:00 Legend Double Dagger -1.9 -7.0 68 31 13 16.1 101.32   -6 LegendNANA
11:00 Legend Double Dagger -1.8 -7.3 66 32 11 16.1 101.35   -6 LegendNANA
12:00 Legend Double Dagger -1.7 -7.7 64 30 5 16.1 101.40   -4 LegendNANA
13:00 Legend Double Dagger -2.3 -6.9 71 18 13 16.1 101.44   -7 LegendNANA
14:00 Legend Double Dagger -3.5 -8.7 67 18 21 16.1 101.49   -10 LegendNANA
15:00 Legend Double Dagger -4.3 -9.2 69 18 22 16.1 101.53   -11 LegendNANA
16:00 Legend Double Dagger -5.2 -9.9 70 19 21 16.1 101.57   -12 LegendNANA
17:00 Legend Double Dagger -5.4 -10.1 70 19 24 16.1 101.60   -13 LegendNANA
18:00 Legend Double Dagger -8.1 -11.9 74 13 8 16.1 101.67   -12 LegendNANA
19:00 Legend Double Dagger -7.9 -11.7 74 14 8 16.1 101.73   -12 LegendNANA
20:00 Legend Double Dagger -8.0 -11.7 75 18 5 16.1 101.75   -11 LegendNANA
21:00 Legend Double Dagger -7.0 -11.3 72 19 15 16.1 101.78   -13 LegendNANA
22:00 Legend Double Dagger -6.3 -10.7 71 19 18 16.1 101.80   -13 LegendNANA
23:00 Legend Double Dagger -8.3 -11.9 75 20 15 16.1 101.84   -15 LegendNANA

Notes on Data Quality.

Legend

  • E = Estimated
  • M = Missing
  • NA = Not Available
  • ‡ = Partner data that is not subject to review by the National Climate Archives
Date modified: